This demonstration page uses our WeatherBlox Daily Observations layout. Learn more.

Left ArrowRight Arrow

39.29038, -76.61219

Hourly Observations for January 26, 2017

Temp ( °F °C ) Dew Point ( °F °C ) Humidity (%) Winds ( mph kmh ) Pressure ( in mb ) Visibility ( mi km ) Precip ( " mm )
12:54 am 00:54 undefined 45 7.2 37 2.8 74 74 undefined N/A 29.54 1000 N/A 0.00 0.00
1:54 am 01:54 undefined 46 7.8 38 3.3 73 73 undefined N/A 29.52 1000 N/A 0.00 0.00
2:54 am 02:54 undefined 45 7.2 38 3.3 77 77 undefined N/A 29.52 1000 N/A 0.00 0.00
3:54 am 03:54 undefined 45 7.2 38 3.3 77 77 undefined N/A 29.51 999 N/A 0.00 0.00
4:54 am 04:54 undefined 45 7.2 38 3.3 77 77 undefined N/A 29.48 998 N/A 0.00 0.00
5:54 am 05:54 undefined 46 7.8 38 3.3 73 73 undefined N/A 29.45 997 N/A 0.00 0.00
6:54 am 06:54 undefined 46 7.8 39 3.9 77 77 undefined N/A 29.47 998 N/A 0.00 0.00
7:54 am 07:54 undefined 50 10 39 3.9 66 66 undefined N/A 29.48 998 N/A 0.00 0.00
8:54 am 08:54 undefined 49 9.4 40 4.4 71 71 undefined N/A 29.48 998 N/A 0.00 0.00
9:54 am 09:54 undefined 50 10 41 5 71 71 undefined N/A 29.50 999 N/A 0.00 0.00
10:54 am 10:54 undefined 56 13.3 35 1.7 46 46 undefined N/A 29.49 999 N/A 0.00 0.00
11:54 am 11:54 undefined 55 12.8 28 -2.2 35 35 undefined N/A 29.47 998 N/A 0.00 0.00
12:54 pm 12:54 undefined 56 13.3 27 -2.8 33 33 undefined N/A 29.48 998 N/A 0.00 0.00
1:54 pm 13:54 undefined 54 12.2 24 -4.4 31 31 undefined N/A 29.49 999 N/A 0.00 0.00
2:54 pm 14:54 undefined 52 11.1 26 -3.3 37 37 undefined N/A 29.52 1000 N/A 0.00 0.00
3:54 pm 15:54 undefined 50 10 23 -5 35 35 undefined N/A 29.56 1001 N/A 0.00 0.00
4:54 pm 16:54 undefined 48 8.9 24 -4.4 39 39 undefined N/A 29.62 1003 N/A 0.00 0.00
5:54 pm 17:54 undefined 47 8.3 24 -4.4 41 41 undefined N/A 29.64 1004 N/A 0.00 0.00
6:54 pm 18:54 undefined 47 8.3 25 -3.9 42 42 undefined N/A 29.66 1005 N/A 0.00 0.00
7:54 pm 19:54 undefined 47 8.3 26 -3.3 44 44 undefined N/A 29.68 1005 N/A 0.00 0.00
8:54 pm 20:54 undefined 47 8.3 25 -3.9 42 42 undefined N/A 29.70 1006 N/A 0.00 0.00
9:54 pm 21:54 undefined 46 7.8 26 -3.3 46 46 undefined N/A 29.72 1007 N/A 0.00 0.00
10:54 pm 22:54 undefined 46 7.8 24 -4.4 42 42 undefined N/A 29.75 1007 N/A 0.00 0.00
11:54 pm 23:54 undefined 45 7.2 25 -3.9 46 46 undefined N/A 29.76 1008 N/A 0.00 0.00

Powered by AerisWeather